Weather in Kosmach

Ukraine / Ivano-Frankovsk District     48°19′39″N   24°50′20″E
temp.,
°C
wind,
m/s
gust,
m/s
humid.,
%
clouds,
%
prec.,
mm/h
press.,
hPa
HPBL,
m
1 july, fri
fri100:00+16ssw1179100 0.2 101711
03:00+16sw218522 0.4 101714
06:00+15ssw11841 0.0 101713
09:00+22ese12570 0.0 1016400
12:00+27e22425 0.0 10161812
15:00+27ene334474 0.0 10151438
18:00+16wnw51194100 9.9 1019386
21:00+16ssw229194 11.8 101831
2 july, sat
sat200:00+15sw228816 0.0 101917
03:00+15sw22864 0.0 101816
06:00+16wsw218470 0.0 101917
09:00+22nnw126292 0.0 1019253
12:00+24nne225330 0.0 10201078
15:00+24nne126989 2.4 1020758
18:00+16wnw2398100 12.8 1023142
21:00+15s2397100 19.1 102290
3 july, sun
sun300:00+13e1194100 0.0 102311
03:00+13ne019727 0.0 102248
06:00+13nnw119968 0.0 102236
09:00+15ne119278 0.0 1022322
12:00+19ene117752 0.1 1021494
15:00+24ene126030 0.8 10191238
18:00+22ne11774 1.8 1019829
21:00+17nnw11900 3.4 101913
4 july, mon
mon400:00+15nne019596 0.1 102111
03:00+15ssw1196100 0.1 102014
06:00+14sw21951 0.0 101918
09:00+20ese01790 0.0 1018279
12:00+26nne23385 0.0 10182170
15:00+27ne444451 0.0 10171951
18:00+26nne225135 0.6 10171300
21:00+19ssw117452 1.5 101811
5 july, tue
tue500:00+17wnw117017 0.1 102012
03:00+15wsw11790 0.1 102011
06:00+15sw11860 0.0 102012
09:00+22ese11601 0.0 1019327
12:00+26ene234430 0.0 10181925
15:00+17e249781 3.8 1019114
18:00+16n41098100 9.4 1020621
21:00+15s2498100 15.8 1020151